Showing default

CARB, 64899

Orbit data source: Space-Track

CARB, 64899 is a payload satellite owned by CNES (FR) in SSO that was launched on Sat, 26 Jul 2025 UTC via a VEGA C launch vehicle from the French Guiana (FRGUI). Payload-class satellites include a variety of spacecraft equipped with specific instruments for various scientific and technological missions. These include communications satellites like Starlink; space stations such as the ISS; scientific satellites like the Hubble; Earth observation satellites from companies like Planet Labs, Umbra, and HawkEye 360; GPS; miniature CubeSats for education and research; and military/defense satellites.

Loading next visibility...
Identifier
64899, 2025-156A
Orbit
SSO
Country
Flag of FRFR
Related business
Manufacturer
THALUK
Mission
Operational Civil Science
Bus & Motor
MYRIADE, Unknown motor
Mass
180 kg wet, 180 kg dry
Launch date (UTC)
2025-07-26 (11 months ago)
Launch vehicle
VEGA C
Launch site
French Guiana (FRGUI)
Object type
Payload
Rocket body
Debris
Shape & HBR
Box + 2 Pan, 1.9 m
Radar Cross Section
1.175 m², Large (>1 m²)

Expand to show TLE details & history
Last TLE update: 9 hours ago

TLE from 9 hours ago
0 CARB
1 64899U 25156A   26171.47982279  .00000362  00000-0  65076-4 0  9999
2 64899  97.9830 248.5584 0014993 260.7208  99.2304 14.72328320 48451
Epoch: 2026-06-20T11:30Z
TLE epoch observation values (Epoch: 2026-06-20T11:30:56.689Z)
Latitude
Longitude
167.12835°
Altitude
658.36 km
Speed
7.527 km/s
True Right ascension
16h 34m 14s
True Declination
0° 00' 00"
Sunlit
Object was in full shadow at epoch
Visualization orbit readout
Latitude
Unknown
Longitude
Unknown
Altitude
Unknown
Speed
Unknown
Apparent Right ascension
Unknown
Apparent Declination
Unknown
Sunlit
N/A
Visualization observer readout
Local Sidereal Time
07:20:18
Azimuth
Unknown
Elevation
Unknown
Doppler factor
Unknown
Orbital elements
Apogee altitude
661.238 km
Perigee altitude
640.161 km
Semi-major axis
7,028.837 km
Eccentricity
0.0015
Inclination
97.983°
RAAN
248.5584°
Arg. of periapsis
260.7208°
True anomaly
99.39993°
Mean anomaly
99.2304°
Eccentric anomaly
99.31517°
Mean motion
3.68314 °/min
Orbital period
97.74 mins
BSTAR
0.000065076
Loading maneuver chart data...
Computing Atmospheric mass density...
Loading historical data...
Loading historical data...
Loading historical data...
Loading historical data...
Loading historical data...
Loading historical data...
Loading historical data...
Other satellites on launch #156 in the year 2025 (2025-07-26 UTC)

Documentation

Showing up to 5 results
|